When you browse on this site, cookies collect data to enhance your experience and personalize the content and advertising you see.
Visit our Privacy Policy to learn more. By continuing to use the site, you agree to this use of cookies and data.
  • In Romania
  • List of Countries
  • For 7 days
  • Water Temperature
  • Satellite Maps
  • Weather Map
  • Weather Widgets
  • user-avatar
    Login

    Hourly Weather Winchester

    Today, 20 March, Wednesday

    Time Temperature Precipitation Wind Pressure Humidity
    00:00 +7°C° 0 mm 2 mps 767 mmHg 93%
    01:00 +7°C° 0 mm 2 mps 767 mmHg 94%
    02:00 +7°C° 0 mm 2 mps 767 mmHg 94%
    03:00 +7°C° 0 mm 2 mps 767 mmHg 95%
    04:00 +7°C° 0 mm 2 mps 767 mmHg 95%
    05:00 +8°C° 0 mm 2 mps 767 mmHg 96%
    06:00 +8°C° 0 mm 2 mps 767 mmHg 96%
    07:00 +9°C° 0 mm 2 mps 768 mmHg 94%
    08:00 +10°C° 0 mm 2 mps 768 mmHg 92%
    09:00 +11°C° 0 mm 3 mps 769 mmHg 91%
    10:00 +12°C° 0 mm 3 mps 769 mmHg 88%
    11:00 +12°C° 0 mm 3 mps 769 mmHg 86%
    12:00 +13°C° 0 mm 3 mps 769 mmHg 84%
    13:00 +13°C° 0.1 mm 3 mps 769 mmHg 82%
    14:00 +14°C° 0.1 mm 3 mps 769 mmHg 81%
    15:00 +14°C° 0.1 mm 4 mps 769 mmHg 80%
    16:00 +13°C° 0 mm 3 mps 769 mmHg 84%
    17:00 +12°C° 0 mm 3 mps 769 mmHg 88%
    18:00 +11°C° 0 mm 3 mps 769 mmHg 92%
    19:00 +11°C° 0 mm 3 mps 769 mmHg 93%
    20:00 +10°C° 0 mm 2 mps 769 mmHg 95%
    21:00 +10°C° 0 mm 2 mps 770 mmHg 96%
    22:00 +9°C° 0 mm 2 mps 770 mmHg 96%
    23:00 +8°C° 0 mm 2 mps 770 mmHg 96%

    Tomorrow, 21 March, Thursday

    Time Temperature Precipitation Wind Pressure Humidity
    00:00 +9°C° 0 mm 1 mps 770 mmHg 96%
    01:00 +9°C° 0 mm 1 mps 769 mmHg 96%
    02:00 +8°C° 0 mm 1 mps 769 mmHg 96%
    03:00 +8°C° 0 mm 1 mps 769 mmHg 96%
    04:00 +8°C° 0 mm 1 mps 769 mmHg 96%
    05:00 +7°C° 0 mm 1 mps 769 mmHg 96%
    06:00 +7°C° 0 mm 1 mps 769 mmHg 96%
    07:00 +9°C° 0 mm 1 mps 769 mmHg 92%
    08:00 +9°C° 0 mm 2 mps 769 mmHg 88%
    09:00 +12°C° 0 mm 2 mps 770 mmHg 84%
    10:00 +12°C° 0 mm 2 mps 770 mmHg 81%
    11:00 +13°C° 0 mm 2 mps 770 mmHg 77%
    12:00 +14°C° 0 mm 2 mps 769 mmHg 74%
    13:00 +14°C° 0 mm 2 mps 769 mmHg 75%
    14:00 +14°C° 0 mm 2 mps 769 mmHg 75%
    15:00 +14°C° 0 mm 2 mps 768 mmHg 76%
    16:00 +14°C° 0 mm 2 mps 768 mmHg 78%
    17:00 +13°C° 0 mm 1 mps 768 mmHg 81%
    18:00 +13°C° 0 mm 1 mps 768 mmHg 83%
    19:00 +12°C° 0 mm 1 mps 767 mmHg 85%
    20:00 +11°C° 0 mm 1 mps 767 mmHg 88%
    21:00 +9°C° 0 mm 2 mps 767 mmHg 90%
    22:00 +9°C° 0 mm 2 mps 767 mmHg 92%
    23:00 +8°C° 0 mm 2 mps 767 mmHg 93%

    Day after tomorrow, 22 March, Friday

    Time Temperature Precipitation Wind Pressure Humidity
    00:00 +7°C° 0 mm 2 mps 767 mmHg 94%
    01:00 +7°C° 0 mm 2 mps 766 mmHg 95%
    02:00 +7°C° 0 mm 2 mps 766 mmHg 95%
    03:00 +7°C° 0 mm 2 mps 766 mmHg 95%
    04:00 +7°C° 0 mm 2 mps 766 mmHg 95%
    05:00 +7°C° 0 mm 2 mps 765 mmHg 96%
    06:00 +7°C° 0 mm 2 mps 765 mmHg 96%
    07:00 +8°C° 0 mm 3 mps 765 mmHg 92%
    08:00 +10°C° 0 mm 3 mps 765 mmHg 89%
    09:00 +12°C° 0 mm 4 mps 765 mmHg 85%
    10:00 +13°C° 0 mm 4 mps 765 mmHg 82%
    11:00 +14°C° 0 mm 5 mps 764 mmHg 79%
    12:00 +14°C° 0 mm 5 mps 764 mmHg 75%
    13:00 +14°C° 0 mm 5 mps 764 mmHg 75%
    14:00 +14°C° 0 mm 5 mps 763 mmHg 76%
    15:00 +14°C° 0 mm 6 mps 763 mmHg 76%
    16:00 +13°C° 0 mm 5 mps 763 mmHg 80%
    17:00 +12°C° 0 mm 4 mps 763 mmHg 84%
    18:00 +11°C° 0 mm 3 mps 763 mmHg 87%
    19:00 +10°C° 0 mm 3 mps 763 mmHg 90%
    20:00 +9°C° 0 mm 3 mps 764 mmHg 92%
    21:00 +8°C° 0 mm 2 mps 764 mmHg 94%
    22:00 +8°C° 0 mm 2 mps 765 mmHg 95%
    23:00 +8°C° 0 mm 2 mps 765 mmHg 95%

    23 March, Saturday

    Time Temperature Precipitation Wind Pressure Humidity
    00:00 +8°C° 0 mm 2 mps 765 mmHg 95%
    01:00 +8°C° 0 mm 3 mps 765 mmHg 92%
    02:00 +8°C° 0 mm 3 mps 766 mmHg 88%
    03:00 +7°C° 0 mm 4 mps 766 mmHg 85%
    04:00 +7°C° 0 mm 4 mps 766 mmHg 83%
    05:00 +6°C° 0 mm 4 mps 767 mmHg 82%
    06:00 +5°C° 0 mm 4 mps 767 mmHg 80%
    07:00 +6°C° 0 mm 5 mps 768 mmHg 76%
    08:00 +7°C° 0 mm 5 mps 768 mmHg 73%
    09:00 +7°C° 0 mm 5 mps 768 mmHg 70%
    10:00 +8°C° 0 mm 5 mps 768 mmHg 68%
    11:00 +10°C° 0 mm 4 mps 768 mmHg 66%
    12:00 +11°C° 0 mm 4 mps 768 mmHg 64%
    13:00 +11°C° 0 mm 3 mps 768 mmHg 64%
    14:00 +11°C° 0 mm 3 mps 768 mmHg 65%
    15:00 +11°C° 0 mm 3 mps 768 mmHg 66%
    16:00 +10°C° 0 mm 2 mps 768 mmHg 69%
    17:00 +10°C° 0 mm 2 mps 768 mmHg 72%
    18:00 +9°C° 0 mm 2 mps 768 mmHg 76%
    19:00 +9°C° 0 mm 2 mps 768 mmHg 76%
    20:00 +8°C° 0 mm 2 mps 769 mmHg 76%
    21:00 +8°C° 0 mm 2 mps 769 mmHg 76%
    22:00 +7°C° 0 mm 2 mps 769 mmHg 77%
    23:00 +7°C° 0 mm 2 mps 769 mmHg 77%

    24 March, Sunday

    Time Temperature Precipitation Wind Pressure Humidity
    00:00 +7°C° 0 mm 2 mps 769 mmHg 77%
    01:00 +6°C° 0 mm 2 mps 768 mmHg 78%
    02:00 +6°C° 0 mm 2 mps 768 mmHg 79%
    03:00 +5°C° 0 mm 2 mps 768 mmHg 80%
    04:00 +4°C° 0 mm 2 mps 769 mmHg 83%
    05:00 +4°C° 0 mm 2 mps 769 mmHg 85%
    06:00 +3°C° 0 mm 2 mps 769 mmHg 88%
    07:00 +5°C° 0 mm 2 mps 770 mmHg 82%
    08:00 +6°C° 0 mm 2 mps 770 mmHg 77%
    09:00 +8°C° 0 mm 2 mps 770 mmHg 71%
    10:00 +9°C° 0 mm 3 mps 770 mmHg 66%
    11:00 +10°C° 0 mm 3 mps 771 mmHg 61%
    12:00 +11°C° 0 mm 3 mps 771 mmHg 56%
    13:00 +11°C° 0 mm 3 mps 770 mmHg 55%
    14:00 +11°C° 0 mm 3 mps 770 mmHg 55%
    15:00 +12°C° 0 mm 4 mps 770 mmHg 55%
    16:00 +10°C° 0 mm 3 mps 770 mmHg 60%
    17:00 +9°C° 0 mm 3 mps 770 mmHg 66%
    18:00 +8°C° 0 mm 2 mps 769 mmHg 72%
    19:00 +7°C° 0 mm 2 mps 770 mmHg 76%
    20:00 +6°C° 0 mm 2 mps 770 mmHg 80%
    21:00 +4°C° 0 mm 3 mps 770 mmHg 84%
    22:00 +4°C° 0 mm 3 mps 770 mmHg 86%
    23:00 +3°C° 0 mm 3 mps 770 mmHg 88%

    25 March, Monday

    Time Temperature Precipitation Wind Pressure Humidity
    00:00 +3°C° 0 mm 3 mps 770 mmHg 90%
    01:00 +3°C° 0 mm 3 mps 770 mmHg 90%
    02:00 +2°C° 0 mm 3 mps 770 mmHg 91%
    03:00 +2°C° 0 mm 3 mps 770 mmHg 92%
    04:00 +2°C° 0 mm 3 mps 770 mmHg 92%
    05:00 +2°C° 0 mm 3 mps 770 mmHg 93%
    06:00 +1°C° 0 mm 3 mps 770 mmHg 93%
    07:00 +3°C° 0 mm 3 mps 770 mmHg 88%
    08:00 +5°C° 0 mm 4 mps 770 mmHg 83%
    09:00 +7°C° 0 mm 4 mps 771 mmHg 78%
    10:00 +8°C° 0 mm 4 mps 771 mmHg 74%
    11:00 +10°C° 0 mm 4 mps 771 mmHg 70%
    12:00 +11°C° 0 mm 4 mps 771 mmHg 66%
    13:00 +11°C° 0 mm 4 mps 770 mmHg 67%
    14:00 +12°C° 0 mm 5 mps 770 mmHg 67%
    15:00 +12°C° 0 mm 5 mps 769 mmHg 67%
    16:00 +11°C° 0 mm 4 mps 769 mmHg 71%
    17:00 +10°C° 0 mm 4 mps 769 mmHg 74%
    18:00 +8°C° 0 mm 4 mps 769 mmHg 77%
    19:00 +7°C° 0 mm 4 mps 770 mmHg 81%
    20:00 +7°C° 0 mm 3 mps 770 mmHg 86%
    21:00 +5°C° 0 mm 3 mps 771 mmHg 90%
    22:00 +4°C° 0 mm 3 mps 771 mmHg 90%
    23:00 +4°C° 0 mm 3 mps 772 mmHg 90%
    Show more